Wind_Speed
88 84 81 79 78 77 77 77 78 79 82 87 90 92 93 93 91 89 88 87 85 83 80 77 74 73 71 70 69 67 64 61 59 56 53 50 48 45 44 42 40 39 37
81 78 76 75 74 72 72 71 72 73 74 77 80 84 88 90 92 92 92 92 90 88 86 82 79 76 74 72 71 69 67 65 62 60 57 54 51 49 47 45 42 41 40
78 76 73 70 68 66 64 63 63 65 68 71 74 77 81 85 88 92 95 96 95 93 91 88 84 80 77 75 72 71 69 67 65 63 61 59 56 53 50 48 45 44 42
75 71 67 63 59 56 53 52 53 55 58 63 68 72 75 80 85 91 96 99 100 98 96 92 89 85 81 78 75 73 70 68 67 65 64 63 61 58 55 52 49 47 45
71 65 60 56 52 50 49 48 47 48 50 54 60 66 71 76 82 90 96 100 103 103 100 97 93 90 85 81 78 76 72 68 67 66 66 66 64 62 59 56 53 50 48
66 60 56 53 52 51 50 50 49 48 48 48 51 57 64 72 79 86 95 102 106 106 104 101 98 94 90 86 82 79 75 71 66 66 65 66 67 65 63 61 58 55 52
63 59 56 54 55 55 55 55 54 51 50 49 48 49 55 65 74 82 91 100 106 109 108 105 102 98 95 90 86 82 79 75 69 65 65 65 66 66 65 64 62 59 56
62 59 58 58 59 60 60 61 60 57 54 53 50 47 48 56 67 77 86 95 103 109 111 109 106 102 98 94 90 86 83 78 74 68 64 64 64 66 67 65 63 62 60
61 61 62 63 65 66 66 65 64 62 58 56 54 51 48 50 59 68 80 90 98 104 110 112 109 105 102 98 94 90 86 83 79 74 67 65 65 65 65 65 63 61 63
62 64 67 69 71 72 72 70 68 65 62 57 56 54 51 48 53 61 71 84 92 98 104 110 111 109 105 102 98 94 91 87 83 80 74 67 65 65 64 64 62 61 63
65 69 72 75 76 76 74 72 69 67 63 59 55 54 52 50 49 56 63 75 86 92 98 105 111 111 108 104 101 98 94 91 87 84 82 75 70 65 64 63 61 57 59
69 73 75 74 71 67 64 62 61 60 59 56 53 52 51 50 50 51 57 66 79 87 91 98 106 111 110 107 104 100 97 93 90 86 84 82 77 68 64 62 57 56 56
74 76 73 68 62 55 50 46 45 46 49 50 49 49 48 48 48 49 52 60 71 82 87 90 97 107 111 110 106 103 100 96 92 87 84 84 84 76 67 64 58 56 52
78 76 71 64 55 48 40 33 28 29 34 39 42 43 44 45 46 47 49 55 65 76 84 85 88 98 109 110 107 104 102 98 94 88 83 82 83 82 75 68 63 58 54
79 75 67 57 48 42 35 27 18 14 20 27 33 37 39 42 43 45 47 50 59 70 79 82 83 89 102 108 108 105 103 99 95 91 86 81 80 80 78 74 67 62 58
77 71 61 50 43 39 33 26 18 8 6 15 23 28 33 37 39 41 44 47 53 65 73 79 79 82 91 103 107 105 103 101 97 93 87 82 79 77 77 76 73 66 63
75 68 56 46 40 36 32 27 22 13 4 6 14 21 27 31 34 37 40 44 49 59 68 75 77 77 83 94 104 105 103 101 98 94 89 84 78 76 75 75 74 70 65
74 66 52 42 37 33 29 24 21 15 7 0 8 15 21 26 29 32 36 40 45 54 64 69 74 74 76 85 96 103 103 100 98 95 91 85 80 76 74 74 73 72 68
73 65 51 39 33 30 27 23 18 13 7 3 7 13 17 20 24 27 31 36 41 49 59 65 71 72 71 76 87 98 102 99 97 95 92 88 82 77 75 73 73 72 69
73 67 55 40 32 28 24 21 18 14 9 6 8 11 14 17 20 23 27 31 37 44 54 61 67 69 68 70 78 90 100 100 97 94 92 89 84 80 76 72 71 71 69
73 69 60 45 34 28 24 21 18 15 11 7 7 8 10 12 15 19 23 28 33 41 49 57 64 66 65 65 69 81 93 99 98 93 91 88 83 79 76 72 70 70 69
72 71 65 53 40 31 26 22 19 16 12 8 6 6 7 9 13 16 19 24 30 37 46 54 61 63 62 61 63 70 83 94 97 94 91 87 82 78 76 73 71 69 67
71 71 68 61 48 37 29 24 19 16 12 8 5 3 5 9 12 15 17 21 27 34 42 51 58 60 60 57 57 62 73 86 93 94 92 87 83 79 75 73 72 69 65
68 70 70 65 56 45 35 28 23 17 13 8 3 2 6 9 12 15 17 21 25 31 39 46 53 57 57 55 54 57 64 75 85 89 90 86 83 80 77 74 71 69 67
66 68 69 68 62 52 42 33 27 21 15 9 4 3 8 11 13 16 18 21 24 29 36 43 50 54 55 53 51 54 59 67 74 82 85 84 83 79 76 74 72 70 68
64 66 67 68 66 59 49 39 31 24 18 11 5 4 9 12 14 17 19 21 24 28 34 40 46 51 53 52 49 50 55 61 68 75 80 81 80 76 75 74 72 70 69
Wind_Direction
300 297 295 292 289 285 280 275 271 267 264 261 257 254 251 247 242 238 234 232 231 231 230 230 229 229 229 228 227 226 225 225 224 224 225 226 225 224 223 223 222 222 222
304 302 299 297 293 290 285 279 273 267 262 258 255 252 248 244 241 236 232 230 229 228 228 228 227 226 226 227 227 226 225 224 224 223 224 225 226 225 224 224 224 224 225
308 306 303 300 297 293 289 284 278 271 264 257 253 250 245 240 236 233 230 227 226 226 225 225 225 224 224 225 226 226 225 224 223 223 223 224 225 225 225 224 225 226 226
310 308 305 302 299 295 292 288 283 276 268 259 252 247 243 238 232 228 226 225 224 224 223 223 223 222 222 222 223 225 224 223 223 223 223 223 224 225 225 225 225 226 227
311 308 305 302 299 296 294 291 288 283 275 265 255 247 241 237 232 226 223 222 221 221 221 221 221 221 220 219 220 222 223 222 222 223 224 223 224 224 225 225 225 226 227
311 308 304 301 298 296 294 292 290 287 282 274 263 251 242 236 232 227 222 220 219 219 219 219 219 219 219 218 218 219 221 221 221 222 223 225 224 225 225 225 225 225 226
311 307 303 300 297 295 292 290 288 285 283 279 271 258 246 238 232 227 224 220 218 217 217 217 217 217 217 216 216 216 218 219 219 221 222 224 226 226 226 226 226 225 226
311 307 303 299 296 293 290 287 284 282 279 277 274 266 252 241 235 228 225 222 219 216 215 215 216 216 216 215 215 215 216 217 217 218 220 223 225 226 226 227 227 226 225
311 307 304 300 297 293 289 285 281 278 275 272 271 267 258 245 236 231 226 223 220 218 215 214 214 214 215 214 214 214 214 215 216 216 217 221 223 225 225 226 227 228 226
315 311 307 303 298 293 288 283 278 274 271 267 264 263 259 251 238 230 228 224 221 219 217 214 213 213 213 213 212 212 213 214 215 215 216 217 219 221 223 224 225 228 227
318 315 311 306 301 295 289 283 276 271 267 263 259 256 256 252 243 231 226 225 221 220 219 215 213 212 212 212 212 212 212 213 214 216 216 216 217 217 218 220 222 224 224
324 320 317 313 308 302 294 285 276 268 262 258 254 251 249 248 245 234 224 223 222 220 219 217 214 212 211 211 211 211 211 212 214 215 217 217 218 217 216 218 220 222 223
330 328 326 324 321 315 307 294 279 266 257 251 248 245 244 243 242 236 226 220 221 220 218 217 215 212 211 210 210 210 210 212 213 215 216 218 220 221 220 219 220 222 223
338 337 336 335 335 333 327 316 292 267 250 243 240 240 240 240 238 235 228 220 218 219 218 217 216 214 211 209 209 209 209 211 213 214 216 217 220 223 224 224 224 224 222
343 343 342 344 347 349 348 344 327 281 247 236 235 235 236 237 236 233 228 221 216 216 216 216 216 214 211 209 208 207 208 210 212 214 216 217 218 221 224 226 227 226 223
348 347 347 350 356 1 8 12 13 360 248 228 229 232 234 235 234 232 227 222 216 214 214 215 215 214 212 210 207 206 207 209 211 214 216 217 218 219 222 224 226 227 226
352 351 351 353 360 8 17 24 30 37 46 221 226 231 234 234 233 231 226 221 215 211 211 213 213 213 212 210 207 205 206 207 209 212 214 216 217 218 220 222 225 227 226
357 356 354 354 0 9 18 24 29 36 44 188 228 232 234 234 233 229 224 220 215 210 208 211 212 211 212 211 208 205 204 205 208 210 213 214 215 217 219 220 223 225 225
1 360 357 354 357 3 11 15 17 19 16 314 249 240 236 233 230 225 222 218 214 208 206 207 210 210 210 210 209 206 203 202 206 209 212 213 215 216 217 219 221 223 224
4 4 1 356 353 356 358 360 0 357 344 311 271 251 240 232 225 220 218 215 211 206 203 204 208 208 208 209 209 207 205 202 204 207 211 213 215 216 217 218 219 221 222
7 8 7 2 354 350 349 347 346 346 337 312 280 258 239 224 215 213 212 210 208 204 201 202 205 206 206 207 207 208 207 204 202 204 208 210 212 215 215 216 217 219 220
9 10 11 9 3 355 350 347 344 340 334 313 285 256 225 206 198 198 200 202 202 200 199 199 202 204 205 205 207 208 208 207 203 202 204 206 209 212 213 214 215 216 217
11 12 13 13 10 5 358 354 350 346 340 329 302 239 194 184 182 183 185 190 194 195 196 197 200 203 204 204 206 208 210 210 207 204 204 205 208 210 213 213 214 214 215
12 14 15 16 15 12 8 2 358 356 353 351 344 181 168 167 169 170 174 179 185 189 191 193 198 201 202 204 206 208 209 211 211 208 206 205 206 209 211 213 213 214 215
13 14 16 17 17 16 14 10 7 6 5 7 22 137 155 157 159 161 165 171 177 183 186 189 194 198 200 203 206 207 208 209 211 210 208 207 206 208 210 212 213 214 214
14 15 17 18 19 19 18 16 14 12 13 17 39 121 148 153 155 158 161 165 171 178 182 186 191 196 199 202 205 207 207 208 208 210 210 209 208 209 209 209 211 212 213
Height
5613 5601 5591 5582 5575 5569 5565 5563 5562 5562 5564 5569 5576 5586 5598 5610 5624 5638 5651 5661 5673 5683 5693 5703 5713 5723 5732 5741 5751 5760 5769 5777 5785 5793 5799 5806 5812 5819 5824 5830 5835 5840 5845
5586 5575 5566 5557 5550 5543 5538 5535 5534 5535 5536 5539 5545 5552 5564 5577 5591 5605 5621 5635 5647 5659 5671 5682 5693 5705 5715 5725 5735 5745 5754 5764 5773 5781 5789 5796 5803 5809 5816 5822 5828 5833 5838
5564 5553 5543 5535 5527 5521 5515 5511 5509 5508 5510 5513 5518 5523 5532 5544 5558 5572 5589 5606 5620 5634 5647 5660 5673 5685 5697 5708 5719 5729 5739 5750 5759 5768 5777 5784 5792 5800 5807 5813 5819 5825 5831
5544 5533 5524 5515 5508 5502 5496 5492 5488 5486 5486 5487 5492 5498 5505 5514 5526 5540 5557 5575 5591 5606 5622 5637 5652 5665 5678 5691 5703 5714 5724 5735 5745 5755 5764 5772 5780 5789 5796 5804 5811 5817 5823
5525 5515 5506 5498 5492 5486 5480 5475 5472 5468 5466 5465 5468 5473 5480 5487 5497 5510 5526 5544 5561 5578 5597 5614 5629 5644 5658 5672 5685 5698 5710 5721 5731 5741 5751 5760 5768 5776 5785 5793 5801 5808 5815
5508 5498 5490 5483 5476 5470 5465 5460 5456 5452 5448 5447 5448 5451 5456 5462 5470 5483 5498 5513 5529 5550 5570 5588 5606 5622 5638 5653 5667 5681 5694 5707 5718 5728 5738 5747 5756 5764 5773 5782 5790 5798 5805
5491 5482 5474 5466 5459 5453 5448 5442 5438 5436 5432 5429 5429 5432 5436 5439 5446 5458 5470 5484 5500 5522 5543 5562 5581 5599 5617 5634 5649 5664 5678 5692 5704 5715 5725 5735 5744 5753 5761 5770 5779 5787 5795
5474 5465 5457 5449 5441 5434 5428 5422 5418 5416 5415 5411 5410 5412 5417 5422 5425 5435 5445 5458 5475 5494 5515 5536 5557 5577 5595 5614 5630 5646 5661 5676 5690 5701 5711 5721 5731 5740 5749 5758 5767 5776 5784
5460 5449 5439 5429 5420 5412 5405 5399 5395 5392 5393 5393 5391 5393 5397 5402 5408 5415 5423 5436 5451 5468 5489 5510 5532 5553 5573 5592 5611 5627 5643 5659 5674 5687 5697 5706 5718 5728 5737 5747 5756 5764 5772
5445 5432 5420 5406 5395 5384 5376 5371 5368 5366 5368 5372 5372 5373 5377 5381 5388 5398 5405 5416 5430 5446 5464 5485 5508 5530 5550 5571 5590 5608 5625 5641 5657 5671 5683 5692 5704 5716 5726 5736 5745 5752 5760
5431 5414 5398 5382 5366 5353 5343 5338 5337 5337 5341 5346 5352 5355 5359 5363 5369 5378 5389 5398 5411 5425 5441 5461 5483 5506 5528 5549 5569 5588 5607 5624 5639 5654 5669 5680 5690 5702 5714 5725 5734 5741 5749
5416 5395 5375 5355 5336 5321 5310 5304 5303 5307 5313 5321 5329 5336 5341 5347 5352 5360 5372 5381 5392 5407 5422 5440 5460 5483 5505 5527 5549 5570 5589 5606 5622 5638 5652 5667 5677 5688 5701 5713 5722 5731 5740
5398 5376 5353 5332 5313 5296 5285 5278 5276 5280 5288 5298 5308 5317 5324 5331 5337 5345 5355 5365 5376 5389 5404 5421 5440 5460 5482 5505 5528 5551 5572 5590 5606 5621 5637 5652 5665 5676 5689 5700 5711 5721 5730
5379 5356 5334 5314 5297 5282 5270 5262 5259 5263 5270 5281 5292 5301 5309 5316 5323 5331 5340 5350 5362 5374 5388 5406 5422 5439 5461 5486 5511 5534 5555 5574 5591 5607 5622 5638 5652 5665 5678 5690 5700 5710 5720
5365 5343 5323 5306 5292 5278 5266 5258 5254 5256 5262 5271 5281 5289 5297 5304 5311 5319 5327 5337 5349 5361 5375 5392 5407 5424 5446 5470 5493 5517 5539 5559 5577 5592 5608 5624 5639 5654 5667 5679 5691 5701 5712
5358 5337 5319 5304 5292 5280 5269 5262 5258 5258 5262 5268 5275 5282 5288 5294 5301 5309 5317 5326 5336 5349 5364 5379 5395 5412 5431 5453 5476 5500 5523 5544 5562 5579 5595 5611 5627 5642 5655 5668 5680 5691 5702
5355 5334 5317 5305 5295 5285 5277 5271 5267 5265 5267 5270 5274 5278 5282 5288 5294 5301 5308 5317 5327 5339 5354 5369 5385 5401 5419 5438 5461 5485 5507 5529 5548 5565 5582 5599 5615 5630 5644 5657 5669 5682 5693
5354 5334 5318 5307 5299 5291 5284 5279 5276 5273 5272 5272 5274 5276 5279 5283 5288 5294 5301 5310 5319 5331 5346 5360 5375 5392 5409 5427 5447 5471 5493 5514 5534 5552 5569 5586 5603 5618 5632 5645 5658 5671 5683
5355 5336 5320 5309 5302 5295 5290 5285 5281 5278 5276 5274 5274 5275 5277 5280 5284 5290 5296 5304 5313 5324 5338 5352 5367 5384 5401 5418 5437 5458 5479 5501 5520 5538 5556 5573 5590 5605 5620 5634 5646 5659 5673
5358 5339 5323 5311 5303 5297 5292 5288 5284 5281 5277 5275 5274 5274 5275 5278 5281 5287 5293 5300 5309 5319 5332 5346 5360 5377 5393 5410 5427 5446 5466 5486 5507 5526 5544 5562 5578 5593 5608 5623 5637 5650 5662
5362 5343 5327 5314 5305 5298 5293 5288 5284 5281 5277 5275 5273 5273 5274 5276 5279 5284 5290 5297 5306 5315 5327 5340 5355 5371 5387 5404 5419 5436 5455 5474 5494 5513 5532 5550 5568 5583 5597 5611 5624 5637 5651
5367 5349 5332 5318 5307 5299 5293 5288 5283 5279 5276 5274 5273 5272 5274 5276 5279 5283 5289 5295 5303 5312 5323 5336 5350 5366 5382 5398 5414 5429 5446 5463 5483 5503 5520 5537 5554 5570 5585 5600 5614 5627 5640
5372 5355 5338 5323 5310 5301 5293 5287 5283 5279 5276 5273 5272 5273 5274 5276 5280 5284 5289 5295 5302 5310 5321 5333 5347 5363 5379 5395 5410 5424 5437 5453 5470 5488 5507 5525 5542 5558 5573 5588 5602 5615 5628
5378 5362 5346 5330 5316 5305 5296 5289 5284 5279 5276 5274 5273 5274 5275 5278 5281 5286 5291 5296 5303 5310 5320 5332 5346 5362 5376 5389 5403 5416 5430 5445 5461 5478 5496 5514 5530 5547 5561 5575 5590 5604 5617
5385 5370 5354 5338 5324 5311 5301 5293 5286 5282 5279 5276 5276 5276 5278 5280 5284 5288 5293 5298 5305 5312 5320 5331 5344 5358 5373 5386 5398 5411 5424 5438 5453 5468 5485 5503 5519 5535 5549 5564 5578 5592 5606
5391 5376 5361 5346 5332 5318 5307 5298 5291 5285 5282 5279 5279 5279 5281 5283 5287 5291 5296 5301 5307 5314 5322 5332 5344 5357 5370 5383 5395 5406 5418 5431 5445 5460 5475 5493 5508 5523 5537 5551 5566 5581 5594